Simultaneous Nadir Overpasses (SNOs) Predictions

Prediction of SNOs between FY3D and AQUA Satellite Orbit:

Table of predicted SNOs for the next 14.0 days since TLE Epoch: 8/7/2021
Index Date (FY3D) Time (FY3D) Lat,Lon (FY3D) SZA (FY3D ) Date (AQUA) Time (AQUA) Lat,Lon (AQUA) SZA (AQUA ) Distance(km) Time Diff (sec)
1 08/08/2021 02:15:24 63.41, 153.09 47.33 08/08/2021 02:16:35 63.42, 153.04 47.35 2.26 71
2 08/08/2021 03:04:31 -58.04, -35.56 137.66 08/08/2021 03:04:26 -58.03, -35.54 137.66 1.48 5
3 08/10/2021 18:36:53 78.88,-125.88 64.89 08/10/2021 18:38:06 79.20,-124.44 65.00 46.37 73
4 08/10/2021 19:21:11 -59.26, 79.57 135.76 08/10/2021 19:21:16 -59.25, 79.59 135.76 0.77 5
5 08/10/2021 20:09:13 49.91,-107.98 36.03 08/10/2021 20:08:06 49.91,-107.98 35.96 0.18 67
6 08/13/2021 11:37:49 -60.36,-165.26 133.93 08/13/2021 11:38:04 -60.36,-165.26 133.92 0.05 15
7 08/13/2021 12:26:20 52.71, 6.64 39.23 08/13/2021 12:25:22 52.70, 6.66 39.18 1.42 58
8 08/16/2021 03:54:24 -61.35, -50.06 132.16 08/16/2021 03:54:49 -61.35, -50.08 132.15 0.82 25
9 08/16/2021 04:42:55 53.72, 122.07 40.96 08/16/2021 04:42:07 53.73, 122.05 40.92 0.83 48
10 08/18/2021 20:10:58 -62.23, 65.18 130.47 08/18/2021 20:11:33 -62.24, 65.15 130.46 1.77 35



Historial Predications of SNOs between FY3D and AQUA
